CW9533 Torre Faro Messina IT current weather conditions

sailwx.info

Wind from 215 at 7 knots gusting 16

Air temperature 25.6° C
Dewpoint 21.6° C

Last reported at 2014-Sep-18 08:43 UTC.
Time now 2014-Sep-18 09:38 UTC

Location: N 38°16' E 015°39'.
View on Google Maps.

See reports from other nearby stations

  
Tides and Currents Weather Stations Pressure Air Temp Water Temp Dewpoint Dewpoint Depression Visibility Wind Speed Wind Dir Waves Ship Positions
date/time (UTC)wind fromknots sea level pressurealtimeterstation pressurevisibilityair tempwater tempwave heightnotes
2014-Sep-18 08:43 215 7 gusting 16 25.6
2014-Sep-18 08:28 219 6 gusting 13 25.6
2014-Sep-18 08:13 210 5 gusting 10 25.0
2014-Sep-18 07:57 188 4 gusting 8 25.0
2014-Sep-18 07:43 191 4 gusting 7 25.0
2014-Sep-18 07:27 216 3 gusting 6 24.4
2014-Sep-18 07:12 216 4 gusting 11 24.4
2014-Sep-18 06:57 219 6 gusting 11 23.9
2014-Sep-18 06:42 221 8 gusting 14 24.4
2014-Sep-18 06:27 220 6 gusting 10 24.4
2014-Sep-18 06:12 221 6 gusting 15 24.4
2014-Sep-18 05:57 210 5 gusting 13 24.4
2014-Sep-18 05:42 218 4 gusting 8 23.9
2014-Sep-18 05:27 218 5 gusting 12 23.9
2014-Sep-18 05:12 219 6 gusting 12 23.9
2014-Sep-18 04:57 220 7 gusting 12 24.4
2014-Sep-18 04:42 228 4 gusting 7 23.9
2014-Sep-18 04:27 232 3 gusting 8 23.9
2014-Sep-18 04:12 221 5 gusting 9 23.9
2014-Sep-18 03:57 221 6 gusting 13 24.4
2014-Sep-18 03:42 221 7 gusting 13 24.4
2014-Sep-18 03:27 215 7 gusting 13 24.4
2014-Sep-18 03:12 213 6 gusting 14 23.9
2014-Sep-18 02:57 224 6 gusting 13 23.9
2014-Sep-18 02:42 217 4 gusting 10 23.9
2014-Sep-18 02:27 217 6 gusting 11 23.9
2014-Sep-18 02:12 215 5 gusting 11 23.9
2014-Sep-18 01:57 209 6 gusting 13 23.9
2014-Sep-18 01:42 213 6 gusting 12 23.9
2014-Sep-18 01:27 214 7 gusting 13 23.9
2014-Sep-18 01:12 218 6 gusting 12 23.9
2014-Sep-18 00:57 217 8 gusting 13 23.9
2014-Sep-18 00:42 238 7 gusting 13 23.9
2014-Sep-18 00:27 206 7 gusting 13 23.9
2014-Sep-18 00:12 209 6 gusting 13 24.4
2014-Sep-17 23:57 216 6 gusting 13 24.4
2014-Sep-17 23:42 218 6 gusting 11 24.4
2014-Sep-17 23:27 209 6 gusting 11 24.4
2014-Sep-17 23:12 221 3 gusting 9 24.4
2014-Sep-17 22:57 214 4 gusting 10 24.4
2014-Sep-17 22:42 223 4 gusting 12 24.4
2014-Sep-17 22:27 212 5 gusting 12 23.9
2014-Sep-17 22:12 212 4 gusting 10 23.9
2014-Sep-17 21:57 213 3 gusting 10 23.9
2014-Sep-17 21:42 215 5 gusting 10 24.4
2014-Sep-17 21:12 209 6 gusting 13 24.4
2014-Sep-17 20:57 215 7 gusting 13 24.4
2014-Sep-17 20:42 229 6 gusting 11 24.4
2014-Sep-17 20:27 217 7 gusting 14 24.4
2014-Sep-17 20:12 207 9 gusting 14 24.4
2014-Sep-17 19:57 215 7 gusting 16 24.4
2014-Sep-17 19:42 223 8 gusting 14 24.4
2014-Sep-17 19:27 220 6 gusting 13 24.4
2014-Sep-17 19:12 215 7 gusting 14 24.4
2014-Sep-17 18:56 226 7 gusting 15 24.4
2014-Sep-17 18:41 224 9 gusting 15 24.4
2014-Sep-17 18:26 222 6 gusting 14 24.4
2014-Sep-17 18:11 223 4 gusting 10 24.4
2014-Sep-17 17:56 222 6 gusting 13 24.4
2014-Sep-17 17:41 213 6 gusting 16 24.4
2014-Sep-17 17:26 217 6 gusting 13 24.4
2014-Sep-17 17:11 217 6 gusting 13 25.0
2014-Sep-17 16:56 222 5 gusting 12 25.0
2014-Sep-17 16:41 205 7 gusting 13 25.0
2014-Sep-17 16:26 215 6 gusting 13 25.0
2014-Sep-17 16:11 220 6 gusting 13 25.0
2014-Sep-17 15:56 204 6 gusting 14 25.0
2014-Sep-17 15:41 224 8 gusting 14 25.6
2014-Sep-17 15:26 219 6 gusting 14 25.6
2014-Sep-17 15:11 231 6 gusting 16 25.6
2014-Sep-17 14:56 232 7 gusting 15 25.6
2014-Sep-17 14:41 230 7 gusting 13 25.6
2014-Sep-17 14:26 207 7 gusting 16 25.6
2014-Sep-17 14:11 207 9 gusting 13 26.1
2014-Sep-17 13:57 218 9 gusting 16 26.1
2014-Sep-17 13:41 225 7 gusting 14 26.1
2014-Sep-17 13:26 217 9 gusting 17 26.1
2014-Sep-17 13:11 217 9 gusting 15 26.1
2014-Sep-17 12:56 221 7 gusting 14 26.1
2014-Sep-17 12:41 221 7 gusting 14 26.1
2014-Sep-17 12:26 209 8 gusting 14 26.1
2014-Sep-17 12:11 235 6 gusting 16 26.7
2014-Sep-17 11:56 223 8 gusting 16 26.7
2014-Sep-17 11:41 211 6 gusting 14 26.1
2014-Sep-17 11:26 213 6 gusting 14 26.1
2014-Sep-17 11:11 220 8 gusting 16 26.1
2014-Sep-17 10:56 213 8 gusting 15 26.1
2014-Sep-17 10:41 211 9 gusting 14 26.1
2014-Sep-17 10:26 213 6 gusting 13 26.1
2014-Sep-17 10:11 211 5 gusting 13 25.6
2014-Sep-17 09:56 214 6 gusting 11 25.6
2014-Sep-17 09:41 214 6 gusting 10 26.1
2014-Sep-17 09:26 213 5 gusting 10 26.1
2014-Sep-17 09:11 215 5 gusting 10 26.1
2014-Sep-17 08:56 211 4 gusting 13 26.1
2014-Sep-17 08:41 214 6 gusting 10 25.6
2014-Sep-17 08:26 211 6 gusting 11 25.6
2014-Sep-17 08:11 213 7 gusting 13 25.6
2014-Sep-17 07:56 213 6 gusting 10 25.6
2014-Sep-17 07:41 209 5 gusting 10 25.6
2014-Sep-17 07:26 198 4 gusting 11 25.6
2014-Sep-17 07:11 167 3 gusting 9 25.6
2014-Sep-17 06:56 161 2 gusting 8 25.6
2014-Sep-17 06:41 138 2 gusting 9 25.6
2014-Sep-17 06:26 122 2 gusting 7 25.0
2014-Sep-17 06:11 121 2 gusting 6 25.0
2014-Sep-17 05:56 121 24.4
2014-Sep-17 05:41 121 23.3
2014-Sep-17 05:26 121 22.8
2014-Sep-17 05:11 121 22.8
2014-Sep-17 04:56 121 22.8
2014-Sep-17 04:41 121 1 gusting 4 22.8
2014-Sep-17 04:26 121 0 gusting 1 22.8
2014-Sep-17 04:11 121 0 gusting 3 22.8
2014-Sep-17 03:56 121 22.8
2014-Sep-17 03:41 121 0 gusting 1 23.3
2014-Sep-17 03:26 121 23.3
2014-Sep-17 03:11 121 23.3
2014-Sep-17 02:56 121 23.3
2014-Sep-17 02:41 121 23.3
2014-Sep-17 02:26 121 23.3
2014-Sep-17 02:10 121 0 gusting 2 23.3
2014-Sep-17 01:55 121 23.3
2014-Sep-17 01:40 121 0 gusting 3 23.9
2014-Sep-17 01:25 121 1 gusting 3 23.9
2014-Sep-17 01:10 121 0 gusting 6 23.9
2014-Sep-17 00:55 121 0 gusting 7 24.4
2014-Sep-17 00:40 113 3 gusting 7 24.4
2014-Sep-17 00:25 100 1 gusting 6 24.4
2014-Sep-17 00:10 099 3 gusting 6 24.4
2014-Sep-16 23:55 097 2 gusting 5 24.4
2014-Sep-16 23:40 096 1 gusting 7 24.4
2014-Sep-16 23:25 090 2 gusting 6 24.4
2014-Sep-16 23:10 080 3 gusting 6 24.4
2014-Sep-16 22:55 075 0 gusting 4 24.4
2014-Sep-16 22:40 075 23.9
2014-Sep-16 22:25 075 23.9
2014-Sep-16 21:55 075 0 gusting 2 23.9
2014-Sep-16 21:40 075 23.3
2014-Sep-16 21:25 075 0 gusting 2 23.3
2014-Sep-16 21:10 075 0 gusting 2 23.3
2014-Sep-16 20:55 075 0 gusting 2 23.3
2014-Sep-16 20:40 075 0 gusting 2 23.3
2014-Sep-16 20:25 075 0 gusting 4 23.9
2014-Sep-16 20:10 075 1 gusting 6 23.9
2014-Sep-16 19:55 075 0 gusting 2 24.4
2014-Sep-16 19:25 075 24.4
2014-Sep-16 19:10 075 0 gusting 2 24.4
2014-Sep-16 18:55 075 24.4
2014-Sep-16 18:40 075 24.4
2014-Sep-16 18:25 075 1 gusting 6 24.4
2014-Sep-16 18:10 075 1 gusting 6 24.4
2014-Sep-16 17:55 075 2 gusting 4 24.4
2014-Sep-16 17:40 075 1 gusting 4 25.0
2014-Sep-16 17:25 075 1 gusting 6 25.0
2014-Sep-16 17:10 075 2 gusting 6 25.0
2014-Sep-16 16:55 075 2 gusting 6 25.0
2014-Sep-16 16:40 075 2 gusting 6 25.0
2014-Sep-16 16:25 075 0 gusting 6 25.6
2014-Sep-16 16:10 075 3 gusting 6 25.0
2014-Sep-16 15:55 075 1 gusting 7 25.6
2014-Sep-16 15:40 075 3 gusting 6 25.6
2014-Sep-16 15:25 075 2 gusting 6 25.6
2014-Sep-16 15:10 075 1 gusting 6 26.1
2014-Sep-16 14:55 075 2 gusting 7 26.1
2014-Sep-16 14:40 075 2 gusting 10 26.1
2014-Sep-16 14:25 071 2 gusting 7 26.1
2014-Sep-16 14:10 071 7 gusting 10 26.1
2014-Sep-16 13:55 074 1 gusting 11 26.1
2014-Sep-16 13:40 101 3 gusting 9 25.6
2014-Sep-16 13:25 124 4 gusting 8 25.6
2014-Sep-16 13:10 194 2 gusting 6 25.6
2014-Sep-16 12:55 209 2 gusting 5 26.1
2014-Sep-16 12:40 209 2 gusting 5 26.1
2014-Sep-16 12:25 209 2 gusting 6 26.1
2014-Sep-16 12:10 209 1 gusting 6 26.1
2014-Sep-16 11:55 206 2 gusting 8 26.1
2014-Sep-16 11:40 206 3 gusting 8 26.1
2014-Sep-16 11:25 207 4 gusting 10 26.1
2014-Sep-16 11:10 218 4 gusting 11 26.7
2014-Sep-16 10:55 209 3 gusting 10 26.7
2014-Sep-16 10:40 183 5 gusting 9 26.7
2014-Sep-16 10:25 105 3 gusting 8 26.1
2014-Sep-16 10:10 084 2 gusting 6 26.1
2014-Sep-16 09:55 076 1 gusting 6 26.1
2014-Sep-16 09:40 066 2 gusting 6 25.6
2014-Sep-16 09:25 061 3 gusting 6 25.6
2014-Sep-16 09:10 059 2 gusting 6 25.6